contact:dominique.lefevre@mio.osupytheas.fr, maurice.libes@osupytheas.fr, didier.mallarino@osupytheas.fr
Project:EMSO http://www.emso-fr.org/EMSO-France
Depth: 2436.0 m
Title:EMSO Ligure Ouest : Data MII capteur MICROCAT
DateTime_Computer,Latitude,Longitude,Temperature,Conductivity,Pressure,DateTime_Instrument
DateTime_Computer,Latitude,Longitude,degC,S m-1,dbar,DateTime_Instrument
2021-05-06T00:01:35Z,42.805,6.029,13.2983,4.59994,2470.483,2021-5-06T02:02:46Z
2021-05-06T00:04:38Z,42.805,6.029,13.2989,4.59994,2470.474,2021-5-06T02:05:49Z
2021-05-06T00:07:42Z,42.805,6.029,13.2987,4.59992,2470.497,2021-5-06T02:08:52Z
2021-05-06T00:10:45Z,42.805,6.029,13.2988,4.59993,2470.437,2021-5-06T02:11:55Z
2021-05-06T00:13:48Z,42.805,6.029,13.2987,4.59994,2470.45,2021-5-06T02:14:58Z
2021-05-06T00:16:51Z,42.805,6.029,13.2988,4.59993,2470.507,2021-5-06T02:18:01Z
2021-05-06T00:19:54Z,42.805,6.029,13.2989,4.59993,2470.483,2021-5-06T02:21:04Z
2021-05-06T00:22:57Z,42.805,6.029,13.2989,4.59995,2470.52,2021-5-06T02:24:07Z
2021-05-06T00:26:00Z,42.805,6.029,13.2987,4.59994,2470.474,2021-5-06T02:27:11Z
2021-05-06T00:29:03Z,42.805,6.029,13.2989,4.59995,2470.497,2021-5-06T02:30:14Z
2021-05-06T00:32:06Z,42.805,6.029,13.2991,4.59994,2470.497,2021-5-06T02:33:17Z
2021-05-06T00:35:10Z,42.805,6.029,13.2991,4.59994,2470.507,2021-5-06T02:36:20Z
2021-05-06T00:38:13Z,42.805,6.029,13.2986,4.59995,2470.46,2021-5-06T02:39:23Z
2021-05-06T00:41:16Z,42.805,6.029,13.2989,4.59996,2470.507,2021-5-06T02:42:26Z
2021-05-06T00:44:19Z,42.805,6.029,13.2987,4.59994,2470.474,2021-5-06T02:45:29Z
2021-05-06T00:47:22Z,42.805,6.029,13.2988,4.59995,2470.52,2021-5-06T02:48:32Z
2021-05-06T00:50:25Z,42.805,6.029,13.2991,4.59994,2470.483,2021-5-06T02:51:35Z
2021-05-06T00:53:28Z,42.805,6.029,13.2986,4.59994,2470.52,2021-5-06T02:54:39Z
2021-05-06T00:56:31Z,42.805,6.029,13.2983,4.59995,2470.52,2021-5-06T02:57:42Z
2021-05-06T00:59:35Z,42.805,6.029,13.2990,4.59993,2470.493,2021-5-06T03:00:45Z
2021-05-06T01:02:38Z,42.805,6.029,13.2990,4.59996,2470.483,2021-5-06T03:03:48Z
2021-05-06T01:05:41Z,42.805,6.029,13.2987,4.59998,2470.507,2021-5-06T03:06:51Z
2021-05-06T01:08:44Z,42.805,6.029,13.2987,4.59994,2470.507,2021-5-06T03:09:54Z
2021-05-06T01:11:47Z,42.805,6.029,13.2986,4.59994,2470.507,2021-5-06T03:12:57Z
2021-05-06T01:14:50Z,42.805,6.029,13.2987,4.59994,2470.567,2021-5-06T03:16:00Z
2021-05-06T01:17:53Z,42.805,6.029,13.2987,4.59995,2470.52,2021-5-06T03:19:04Z
2021-05-06T01:20:56Z,42.805,6.029,13.2991,4.59994,2470.497,2021-5-06T03:22:07Z
2021-05-06T01:24:00Z,42.805,6.029,13.2987,4.59996,2470.53,2021-5-06T03:25:10Z
2021-05-06T01:27:03Z,42.805,6.029,13.2990,4.59996,2470.507,2021-5-06T03:28:13Z
2021-05-06T01:30:06Z,42.805,6.029,13.2990,4.59994,2470.53,2021-5-06T03:31:16Z
2021-05-06T01:33:09Z,42.805,6.029,13.2992,4.59993,2470.53,2021-5-06T03:34:19Z
2021-05-06T01:36:12Z,42.805,6.029,13.2990,4.59993,2470.53,2021-5-06T03:37:22Z
2021-05-06T01:39:15Z,42.805,6.029,13.2987,4.59996,2470.53,2021-5-06T03:40:25Z
2021-05-06T01:42:18Z,42.805,6.029,13.2987,4.59996,2470.544,2021-5-06T03:43:28Z
2021-05-06T01:45:21Z,42.805,6.029,13.2989,4.59995,2470.53,2021-5-06T03:46:32Z
2021-05-06T01:48:24Z,42.805,6.029,13.2990,4.59994,2470.53,2021-5-06T03:49:35Z
2021-05-06T01:51:28Z,42.805,6.029,13.2987,4.59993,2470.553,2021-5-06T03:52:38Z
2021-05-06T01:54:31Z,42.805,6.029,13.2986,4.59995,2470.53,2021-5-06T03:55:41Z
2021-05-06T01:57:34Z,42.805,6.029,13.2986,4.59996,2470.577,2021-5-06T03:58:44Z
2021-05-06T02:00:37Z,42.805,6.029,13.2990,4.59996,2470.567,2021-5-06T04:01:47Z
2021-05-06T02:03:40Z,42.805,6.029,13.2991,4.59994,2470.553,2021-5-06T04:04:50Z
2021-05-06T02:06:43Z,42.805,6.029,13.2992,4.59994,2470.53,2021-5-06T04:07:53Z
2021-05-06T02:09:46Z,42.805,6.029,13.2989,4.59995,2470.53,2021-5-06T04:10:57Z
2021-05-06T02:12:49Z,42.805,6.029,13.2989,4.59994,2470.553,2021-5-06T04:14:00Z
2021-05-06T02:15:52Z,42.805,6.029,13.2988,4.59994,2470.591,2021-5-06T04:17:03Z
2021-05-06T02:18:56Z,42.805,6.029,13.2993,4.59994,2470.553,2021-5-06T04:20:06Z
2021-05-06T02:21:59Z,42.805,6.029,13.2987,4.59994,2470.553,2021-5-06T04:23:09Z
2021-05-06T02:25:02Z,42.805,6.029,13.2987,4.59994,2470.553,2021-5-06T04:26:12Z
2021-05-06T02:28:05Z,42.805,6.029,13.2989,4.59995,2470.553,2021-5-06T04:29:15Z
2021-05-06T02:31:08Z,42.805,6.029,13.2988,4.59994,2470.553,2021-5-06T04:32:18Z
2021-05-06T02:34:11Z,42.805,6.029,13.2986,4.59995,2470.6,2021-5-06T04:35:21Z
2021-05-06T02:37:14Z,42.805,6.029,13.2988,4.59996,2470.614,2021-5-06T04:38:25Z
2021-05-06T02:40:17Z,42.805,6.029,13.2990,4.59995,2470.577,2021-5-06T04:41:28Z
2021-05-06T02:43:21Z,42.805,6.029,13.2993,4.59996,2470.591,2021-5-06T04:44:31Z
2021-05-06T02:46:24Z,42.805,6.029,13.2987,4.59996,2470.6,2021-5-06T04:47:34Z
2021-05-06T02:49:27Z,42.805,6.029,13.2987,4.59996,2470.553,2021-5-06T04:50:37Z
2021-05-06T02:52:30Z,42.805,6.029,13.2990,4.59995,2470.563,2021-5-06T04:53:40Z
2021-05-06T02:55:33Z,42.805,6.029,13.2991,4.59996,2470.53,2021-5-06T04:56:43Z
2021-05-06T02:58:36Z,42.805,6.029,13.2986,4.59994,2470.563,2021-5-06T04:59:46Z
2021-05-06T03:01:39Z,42.805,6.029,13.2991,4.59994,2470.577,2021-5-06T05:02:50Z
2021-05-06T03:04:42Z,42.805,6.029,13.2989,4.59996,2470.6,2021-5-06T05:05:53Z
2021-05-06T03:07:45Z,42.805,6.029,13.2986,4.59996,2470.591,2021-5-06T05:08:56Z
2021-05-06T03:10:49Z,42.805,6.029,13.2988,4.59995,2470.614,2021-5-06T05:11:59Z
2021-05-06T03:13:52Z,42.805,6.029,13.2986,4.59996,2470.553,2021-5-06T05:15:02Z
2021-05-06T03:16:55Z,42.805,6.029,13.2992,4.59994,2470.577,2021-5-06T05:18:05Z
2021-05-06T03:19:58Z,42.805,6.029,13.2990,4.59996,2470.6,2021-5-06T05:21:08Z
2021-05-06T03:23:01Z,42.805,6.029,13.2988,4.59995,2470.577,2021-5-06T05:24:11Z
2021-05-06T03:26:04Z,42.805,6.029,13.2991,4.59998,2470.6,2021-5-06T05:27:14Z
2021-05-06T03:29:07Z,42.805,6.029,13.2991,4.59996,2470.591,2021-5-06T05:30:18Z
2021-05-06T03:32:10Z,42.805,6.029,13.2990,4.59996,2470.591,2021-5-06T05:33:21Z
2021-05-06T03:35:14Z,42.805,6.029,13.2990,4.59999,2470.577,2021-5-06T05:36:24Z
2021-05-06T03:38:17Z,42.805,6.029,13.2991,4.59996,2470.577,2021-5-06T05:39:27Z
2021-05-06T03:41:20Z,42.805,6.029,13.2989,4.59996,2470.614,2021-5-06T05:42:30Z
2021-05-06T03:44:23Z,42.805,6.029,13.2986,4.59996,2470.577,2021-5-06T05:45:33Z
2021-05-06T03:47:26Z,42.805,6.029,13.2991,4.59995,2470.577,2021-5-06T05:48:36Z
2021-05-06T03:50:29Z,42.805,6.029,13.2990,4.59996,2470.6,2021-5-06T05:51:39Z
2021-05-06T03:53:32Z,42.805,6.029,13.2990,4.59996,2470.6,2021-5-06T05:54:43Z
2021-05-06T03:56:35Z,42.805,6.029,13.2989,4.59996,2470.6,2021-5-06T05:57:46Z
2021-05-06T03:59:39Z,42.805,6.029,13.2993,4.59997,2470.614,2021-5-06T06:00:49Z
2021-05-06T04:02:42Z,42.805,6.029,13.2991,4.59996,2470.637,2021-5-06T06:03:52Z
2021-05-06T04:05:45Z,42.805,6.029,13.2987,4.59996,2470.637,2021-5-06T06:06:55Z
2021-05-06T04:08:48Z,42.805,6.029,13.2991,4.59996,2470.624,2021-5-06T06:09:58Z
2021-05-06T04:11:51Z,42.805,6.029,13.2991,4.59996,2470.624,2021-5-06T06:13:01Z
2021-05-06T04:14:54Z,42.805,6.029,13.2991,4.59996,2470.637,2021-5-06T06:16:04Z
2021-05-06T04:17:57Z,42.805,6.029,13.2991,4.59996,2470.6,2021-5-06T06:19:08Z
2021-05-06T04:21:00Z,42.805,6.029,13.2990,4.59996,2470.591,2021-5-06T06:22:11Z
2021-05-06T04:24:03Z,42.805,6.029,13.2993,4.59996,2470.591,2021-5-06T06:25:14Z
2021-05-06T04:27:07Z,42.805,6.029,13.2991,4.59996,2470.6,2021-5-06T06:28:17Z
2021-05-06T04:30:10Z,42.805,6.029,13.2993,4.59996,2470.577,2021-5-06T06:31:20Z
2021-05-06T04:33:13Z,42.805,6.029,13.2989,4.59995,2470.637,2021-5-06T06:34:23Z
2021-05-06T04:36:16Z,42.805,6.029,13.2991,4.59996,2470.6,2021-5-06T06:37:26Z
2021-05-06T04:39:19Z,42.805,6.029,13.2986,4.59995,2470.614,2021-5-06T06:40:29Z
2021-05-06T04:42:22Z,42.805,6.029,13.2989,4.59996,2470.614,2021-5-06T06:43:32Z
2021-05-06T04:45:25Z,42.805,6.029,13.2993,4.59996,2470.6,2021-5-06T06:46:36Z
2021-05-06T04:48:28Z,42.805,6.029,13.2991,4.59995,2470.6,2021-5-06T06:49:39Z
2021-05-06T04:51:32Z,42.805,6.029,13.2991,4.59995,2470.624,2021-5-06T06:52:42Z
2021-05-06T04:54:35Z,42.805,6.029,13.2993,4.59996,2470.624,2021-5-06T06:55:45Z
2021-05-06T04:57:38Z,42.805,6.029,13.2991,4.59996,2470.624,2021-5-06T06:58:48Z
2021-05-06T05:00:41Z,42.805,6.029,13.2994,4.59996,2470.624,2021-5-06T07:01:51Z
2021-05-06T05:03:44Z,42.805,6.029,13.2991,4.59997,2470.591,2021-5-06T07:04:54Z
2021-05-06T05:06:47Z,42.805,6.029,13.2991,4.59996,2470.6,2021-5-06T07:07:57Z
2021-05-06T05:09:50Z,42.805,6.029,13.2993,4.59995,2470.637,2021-5-06T07:11:00Z
2021-05-06T05:12:53Z,42.805,6.029,13.2988,4.59996,2470.6,2021-5-06T07:14:04Z
2021-05-06T05:15:56Z,42.805,6.029,13.2990,4.59995,2470.6,2021-5-06T07:17:07Z
2021-05-06T05:19:00Z,42.805,6.029,13.2988,4.59995,2470.6,2021-5-06T07:20:10Z
2021-05-06T05:22:03Z,42.805,6.029,13.2990,4.59996,2470.6,2021-5-06T07:23:13Z
2021-05-06T05:25:06Z,42.805,6.029,13.2993,4.59995,2470.637,2021-5-06T07:26:16Z
2021-05-06T05:28:09Z,42.805,6.029,13.2991,4.59996,2470.6,2021-5-06T07:29:19Z
2021-05-06T05:31:12Z,42.805,6.029,13.2995,4.59995,2470.614,2021-5-06T07:32:22Z
2021-05-06T05:34:15Z,42.805,6.029,13.2993,4.59996,2470.624,2021-5-06T07:35:25Z
2021-05-06T05:37:18Z,42.805,6.029,13.2990,4.59996,2470.624,2021-5-06T07:38:29Z
2021-05-06T05:40:21Z,42.805,6.029,13.2992,4.59996,2470.614,2021-5-06T07:41:32Z
2021-05-06T05:43:25Z,42.805,6.029,13.2988,4.59996,2470.6,2021-5-06T07:44:35Z
2021-05-06T05:46:28Z,42.805,6.029,13.2994,4.59994,2470.577,2021-5-06T07:47:38Z
2021-05-06T05:49:31Z,42.805,6.029,13.2989,4.59996,2470.591,2021-5-06T07:50:41Z
2021-05-06T05:52:34Z,42.805,6.029,13.2989,4.59996,2470.614,2021-5-06T07:53:44Z
2021-05-06T05:55:37Z,42.805,6.029,13.2990,4.59994,2470.553,2021-5-06T07:56:47Z
2021-05-06T05:58:40Z,42.805,6.029,13.2990,4.59996,2470.577,2021-5-06T07:59:50Z
2021-05-06T06:01:43Z,42.805,6.029,13.2987,4.59995,2470.577,2021-5-06T08:02:54Z
2021-05-06T06:04:46Z,42.805,6.029,13.2992,4.59995,2470.614,2021-5-06T08:05:57Z
2021-05-06T06:07:49Z,42.805,6.029,13.2990,4.59998,2470.577,2021-5-06T08:09:00Z
2021-05-06T06:10:53Z,42.805,6.029,13.2985,4.59996,2470.6,2021-5-06T08:12:03Z
2021-05-06T06:13:56Z,42.805,6.029,13.2991,4.59996,2470.6,2021-5-06T08:15:06Z
2021-05-06T06:16:59Z,42.805,6.029,13.2993,4.59996,2470.577,2021-5-06T08:18:09Z
2021-05-06T06:20:02Z,42.805,6.029,13.2991,4.59996,2470.6,2021-5-06T08:21:12Z
2021-05-06T06:23:05Z,42.805,6.029,13.2989,4.59996,2470.6,2021-5-06T08:24:15Z
2021-05-06T06:26:08Z,42.805,6.029,13.2993,4.59996,2470.577,2021-5-06T08:27:18Z
2021-05-06T06:29:11Z,42.805,6.029,13.2990,4.59996,2470.577,2021-5-06T08:30:22Z
2021-05-06T06:32:14Z,42.805,6.029,13.2992,4.59996,2470.567,2021-5-06T08:33:25Z
2021-05-06T06:35:18Z,42.805,6.029,13.2992,4.59995,2470.591,2021-5-06T08:36:28Z
2021-05-06T06:38:21Z,42.805,6.029,13.2986,4.59996,2470.567,2021-5-06T08:39:31Z
2021-05-06T06:41:24Z,42.805,6.029,13.2989,4.59996,2470.553,2021-5-06T08:42:34Z
2021-05-06T06:44:27Z,42.805,6.029,13.2990,4.59995,2470.567,2021-5-06T08:45:37Z
2021-05-06T06:47:30Z,42.805,6.029,13.2991,4.59996,2470.553,2021-5-06T08:48:40Z
2021-05-06T06:50:33Z,42.805,6.029,13.2990,4.59996,2470.567,2021-5-06T08:51:43Z
2021-05-06T06:53:36Z,42.805,6.029,13.2992,4.59996,2470.591,2021-5-06T08:54:47Z
2021-05-06T06:56:39Z,42.805,6.029,13.2989,4.59995,2470.577,2021-5-06T08:57:50Z
2021-05-06T06:59:42Z,42.805,6.029,13.2990,4.59996,2470.591,2021-5-06T09:00:53Z
2021-05-06T07:02:46Z,42.805,6.029,13.2992,4.59996,2470.577,2021-5-06T09:03:56Z
2021-05-06T07:05:49Z,42.805,6.029,13.2992,4.59994,2470.577,2021-5-06T09:06:59Z
2021-05-06T07:08:52Z,42.805,6.029,13.2991,4.59994,2470.553,2021-5-06T09:10:02Z
2021-05-06T07:11:55Z,42.805,6.029,13.2991,4.59994,2470.577,2021-5-06T09:13:05Z
2021-05-06T07:14:58Z,42.805,6.029,13.2986,4.59996,2470.567,2021-5-06T09:16:08Z
2021-05-06T07:18:01Z,42.805,6.029,13.2989,4.59997,2470.614,2021-5-06T09:19:11Z
2021-05-06T07:21:04Z,42.805,6.029,13.2991,4.59995,2470.591,2021-5-06T09:22:15Z
2021-05-06T07:24:07Z,42.805,6.029,13.2991,4.59996,2470.553,2021-5-06T09:25:18Z
2021-05-06T07:27:11Z,42.805,6.029,13.2992,4.59994,2470.577,2021-5-06T09:28:21Z
2021-05-06T07:30:14Z,42.805,6.029,13.2991,4.59994,2470.553,2021-5-06T09:31:24Z
2021-05-06T07:33:17Z,42.805,6.029,13.2991,4.59994,2470.591,2021-5-06T09:34:27Z
2021-05-06T07:36:20Z,42.805,6.029,13.2988,4.59995,2470.567,2021-5-06T09:37:30Z
2021-05-06T07:39:23Z,42.805,6.029,13.2987,4.59994,2470.53,2021-5-06T09:40:33Z
2021-05-06T07:42:26Z,42.805,6.029,13.2987,4.59994,2470.577,2021-5-06T09:43:36Z
2021-05-06T07:45:29Z,42.805,6.029,13.2989,4.59994,2470.553,2021-5-06T09:46:40Z
2021-05-06T07:48:32Z,42.805,6.029,13.2990,4.59994,2470.567,2021-5-06T09:49:43Z
2021-05-06T07:51:35Z,42.805,6.029,13.2993,4.59994,2470.567,2021-5-06T09:52:46Z
2021-05-06T07:54:39Z,42.805,6.029,13.2991,4.59995,2470.507,2021-5-06T09:55:49Z
2021-05-06T07:57:42Z,42.805,6.029,13.2991,4.59994,2470.553,2021-5-06T09:58:52Z
2021-05-06T08:00:45Z,42.805,6.029,13.2988,4.59995,2470.553,2021-5-06T10:01:55Z
2021-05-06T08:03:48Z,42.805,6.029,13.2991,4.59994,2470.553,2021-5-06T10:04:58Z
2021-05-06T08:06:51Z,42.805,6.029,13.2991,4.59994,2470.553,2021-5-06T10:08:01Z
2021-05-06T08:09:54Z,42.805,6.029,13.2989,4.59995,2470.53,2021-5-06T10:11:05Z
2021-05-06T08:12:57Z,42.805,6.029,13.2986,4.59994,2470.53,2021-5-06T10:14:08Z
2021-05-06T08:16:00Z,42.805,6.029,13.2988,4.59994,2470.567,2021-5-06T10:17:11Z
2021-05-06T08:19:04Z,42.805,6.029,13.2990,4.59994,2470.553,2021-5-06T10:20:14Z
2021-05-06T08:22:07Z,42.805,6.029,13.2996,4.59994,2470.544,2021-5-06T10:23:17Z
2021-05-06T08:25:10Z,42.805,6.029,13.2989,4.59994,2470.553,2021-5-06T10:26:20Z
2021-05-06T08:28:13Z,42.805,6.029,13.2992,4.59994,2470.53,2021-5-06T10:29:23Z
2021-05-06T08:31:16Z,42.805,6.029,13.2990,4.59995,2470.53,2021-5-06T10:32:26Z
2021-05-06T08:34:19Z,42.805,6.029,13.2990,4.59995,2470.53,2021-5-06T10:35:29Z
2021-05-06T08:37:22Z,42.805,6.029,13.2991,4.59996,2470.52,2021-5-06T10:38:33Z
2021-05-06T08:40:25Z,42.805,6.029,13.2988,4.59994,2470.544,2021-5-06T10:41:36Z
2021-05-06T08:43:29Z,42.805,6.029,13.2990,4.59996,2470.53,2021-5-06T10:44:39Z
2021-05-06T08:46:32Z,42.805,6.029,13.2985,4.59995,2470.507,2021-5-06T10:47:42Z
2021-05-06T08:49:35Z,42.805,6.029,13.2991,4.59994,2470.53,2021-5-06T10:50:45Z
2021-05-06T08:52:38Z,42.805,6.029,13.2993,4.59994,2470.507,2021-5-06T10:53:48Z
2021-05-06T08:55:41Z,42.805,6.029,13.2992,4.59995,2470.52,2021-5-06T10:56:51Z
2021-05-06T08:58:44Z,42.805,6.029,13.2990,4.59994,2470.507,2021-5-06T10:59:54Z
2021-05-06T09:01:47Z,42.805,6.029,13.2989,4.59994,2470.53,2021-5-06T11:02:58Z
2021-05-06T09:04:50Z,42.805,6.029,13.2989,4.59994,2470.507,2021-5-06T11:06:01Z
2021-05-06T09:07:54Z,42.805,6.029,13.2988,4.59994,2470.53,2021-5-06T11:09:04Z
2021-05-06T09:10:57Z,42.805,6.029,13.2986,4.59995,2470.507,2021-5-06T11:12:07Z
2021-05-06T09:14:00Z,42.805,6.029,13.2988,4.59994,2470.507,2021-5-06T11:15:10Z
2021-05-06T09:17:03Z,42.805,6.029,13.2986,4.59994,2470.53,2021-5-06T11:18:13Z
2021-05-06T09:20:06Z,42.805,6.029,13.2990,4.59996,2470.52,2021-5-06T11:21:16Z
2021-05-06T09:23:09Z,42.805,6.029,13.2986,4.59994,2470.507,2021-5-06T11:24:19Z
2021-05-06T09:26:12Z,42.805,6.029,13.2993,4.59994,2470.53,2021-5-06T11:27:23Z
2021-05-06T09:29:15Z,42.805,6.029,13.2994,4.59994,2470.483,2021-5-06T11:30:26Z
2021-05-06T09:32:19Z,42.805,6.029,13.2989,4.59996,2470.544,2021-5-06T11:33:29Z
2021-05-06T09:35:22Z,42.805,6.029,13.2986,4.59994,2470.507,2021-5-06T11:36:32Z
2021-05-06T09:38:25Z,42.805,6.029,13.2988,4.59996,2470.544,2021-5-06T11:39:35Z
2021-05-06T09:41:28Z,42.805,6.029,13.2990,4.59994,2470.497,2021-5-06T11:42:38Z
2021-05-06T09:44:31Z,42.805,6.029,13.2993,4.59994,2470.483,2021-5-06T11:45:41Z
2021-05-06T09:47:34Z,42.805,6.029,13.2988,4.59993,2470.483,2021-5-06T11:48:44Z
2021-05-06T09:50:37Z,42.805,6.029,13.2990,4.59995,2470.483,2021-5-06T11:51:48Z
2021-05-06T09:53:40Z,42.805,6.029,13.2989,4.59994,2470.507,2021-5-06T11:54:51Z
2021-05-06T09:56:44Z,42.805,6.029,13.2985,4.59996,2470.483,2021-5-06T11:57:54Z
2021-05-06T09:59:47Z,42.805,6.029,13.2990,4.59995,2470.483,2021-5-06T12:00:57Z
2021-05-06T10:02:50Z,42.805,6.029,13.2990,4.59994,2470.507,2021-5-06T12:04:00Z
2021-05-06T10:05:53Z,42.805,6.029,13.2987,4.59995,2470.483,2021-5-06T12:07:03Z
2021-05-06T10:08:56Z,42.805,6.029,13.2986,4.59994,2470.46,2021-5-06T12:10:06Z
2021-05-06T10:11:59Z,42.805,6.029,13.2988,4.59994,2470.474,2021-5-06T12:13:09Z
2021-05-06T10:15:02Z,42.805,6.029,13.2986,4.59994,2470.474,2021-5-06T12:16:13Z
2021-05-06T10:18:05Z,42.805,6.029,13.2991,4.59993,2470.52,2021-5-06T12:19:16Z
2021-05-06T10:21:09Z,42.805,6.029,13.2986,4.59996,2470.497,2021-5-06T12:22:19Z
2021-05-06T10:24:12Z,42.805,6.029,13.2989,4.59994,2470.483,2021-5-06T12:25:22Z
2021-05-06T10:27:15Z,42.805,6.029,13.2984,4.59995,2470.52,2021-5-06T12:28:25Z
2021-05-06T10:30:18Z,42.805,6.029,13.2991,4.59995,2470.497,2021-5-06T12:31:28Z
2021-05-06T10:33:21Z,42.805,6.029,13.2991,4.59994,2470.52,2021-5-06T12:34:31Z
2021-05-06T10:36:24Z,42.805,6.029,13.2991,4.59994,2470.483,2021-5-06T12:37:34Z
2021-05-06T10:39:27Z,42.805,6.029,13.2988,4.59994,2470.507,2021-5-06T12:40:38Z
2021-05-06T10:42:30Z,42.805,6.029,13.2989,4.59995,2470.483,2021-5-06T12:43:41Z
2021-05-06T10:45:33Z,42.805,6.029,13.2992,4.59996,2470.507,2021-5-06T12:46:44Z
2021-05-06T10:48:37Z,42.805,6.029,13.2991,4.59995,2470.46,2021-5-06T12:49:47Z
2021-05-06T10:51:40Z,42.805,6.029,13.2989,4.59994,2470.46,2021-5-06T12:52:50Z
2021-05-06T10:54:43Z,42.805,6.029,13.2992,4.59994,2470.474,2021-5-06T12:55:53Z
2021-05-06T10:57:46Z,42.805,6.029,13.2991,4.59993,2470.46,2021-5-06T12:58:56Z
2021-05-06T11:00:49Z,42.805,6.029,13.2992,4.59995,2470.483,2021-5-06T13:01:59Z
2021-05-06T11:03:52Z,42.805,6.029,13.2991,4.59995,2470.497,2021-5-06T13:05:03Z
2021-05-06T11:06:55Z,42.805,6.029,13.2990,4.59994,2470.507,2021-5-06T13:08:06Z
2021-05-06T11:09:58Z,42.805,6.029,13.2989,4.59993,2470.483,2021-5-06T13:11:09Z
2021-05-06T11:13:02Z,42.805,6.029,13.2989,4.59994,2470.507,2021-5-06T13:14:12Z
2021-05-06T11:16:05Z,42.805,6.029,13.2989,4.59994,2470.46,2021-5-06T13:17:15Z
2021-05-06T11:19:08Z,42.805,6.029,13.2990,4.59995,2470.483,2021-5-06T13:20:18Z
2021-05-06T11:22:11Z,42.805,6.029,13.2991,4.59996,2470.483,2021-5-06T13:23:21Z
2021-05-06T11:25:14Z,42.805,6.029,13.2991,4.59993,2470.46,2021-5-06T13:26:24Z
2021-05-06T11:28:17Z,42.805,6.029,13.2988,4.59995,2470.52,2021-5-06T13:29:28Z
2021-05-06T11:31:20Z,42.805,6.029,13.2990,4.59994,2470.46,2021-5-06T13:32:31Z
2021-05-06T11:34:23Z,42.805,6.029,13.2988,4.59994,2470.46,2021-5-06T13:35:34Z
2021-05-06T11:37:27Z,42.805,6.029,13.2991,4.59994,2470.46,2021-5-06T13:38:37Z
2021-05-06T11:40:30Z,42.805,6.029,13.2988,4.59993,2470.507,2021-5-06T13:41:40Z
2021-05-06T11:43:33Z,42.805,6.029,13.2989,4.59993,2470.497,2021-5-06T13:44:43Z
2021-05-06T11:46:36Z,42.805,6.029,13.2985,4.59994,2470.46,2021-5-06T13:47:46Z
2021-05-06T11:49:39Z,42.805,6.029,13.2982,4.59993,2470.497,2021-5-06T13:50:49Z
2021-05-06T11:52:42Z,42.805,6.029,13.2987,4.59993,2470.497,2021-5-06T13:53:53Z
2021-05-06T11:55:45Z,42.805,6.029,13.2986,4.59993,2470.497,2021-5-06T13:56:56Z
2021-05-06T11:58:48Z,42.805,6.029,13.2988,4.59994,2470.483,2021-5-06T13:59:59Z
2021-05-06T12:01:52Z,42.805,6.029,13.2989,4.59994,2470.483,2021-5-06T14:03:02Z
2021-05-06T12:04:55Z,42.805,6.029,13.2991,4.59993,2470.483,2021-5-06T14:06:05Z
2021-05-06T12:07:58Z,42.805,6.029,13.2985,4.59994,2470.483,2021-5-06T14:09:08Z
2021-05-06T12:11:01Z,42.805,6.029,13.2990,4.59994,2470.507,2021-5-06T14:12:11Z
2021-05-06T12:14:04Z,42.805,6.029,13.2990,4.59994,2470.507,2021-5-06T14:15:14Z
2021-05-06T12:17:07Z,42.805,6.029,13.2987,4.59994,2470.483,2021-5-06T14:18:17Z
2021-05-06T12:20:10Z,42.805,6.029,13.2990,4.59994,2470.493,2021-5-06T14:21:21Z
2021-05-06T12:23:13Z,42.805,6.029,13.2986,4.59994,2470.483,2021-5-06T14:24:24Z
2021-05-06T12:26:17Z,42.805,6.029,13.2991,4.59994,2470.53,2021-5-06T14:27:27Z
2021-05-06T12:29:20Z,42.805,6.029,13.2989,4.59994,2470.497,2021-5-06T14:30:30Z
2021-05-06T12:32:23Z,42.805,6.029,13.2987,4.59993,2470.507,2021-5-06T14:33:33Z
2021-05-06T12:35:26Z,42.805,6.029,13.2988,4.59994,2470.507,2021-5-06T14:36:36Z
2021-05-06T12:38:29Z,42.805,6.029,13.2989,4.59995,2470.483,2021-5-06T14:39:39Z
2021-05-06T12:41:32Z,42.805,6.029,13.2990,4.59995,2470.507,2021-5-06T14:42:43Z
2021-05-06T12:44:35Z,42.805,6.029,13.2986,4.59994,2470.507,2021-5-06T14:45:46Z
2021-05-06T12:47:38Z,42.805,6.029,13.2986,4.59994,2470.52,2021-5-06T14:48:49Z
2021-05-06T12:50:42Z,42.805,6.029,13.2988,4.59994,2470.507,2021-5-06T14:51:52Z
2021-05-06T12:53:45Z,42.805,6.029,13.2991,4.59994,2470.507,2021-5-06T14:54:55Z
2021-05-06T12:56:48Z,42.805,6.029,13.2992,4.59994,2470.497,2021-5-06T14:57:58Z
2021-05-06T12:59:51Z,42.805,6.029,13.2988,4.59993,2470.483,2021-5-06T15:01:01Z
2021-05-06T13:02:54Z,42.805,6.029,13.2993,4.59993,2470.53,2021-5-06T15:04:04Z
2021-05-06T13:05:57Z,42.805,6.029,13.2990,4.59993,2470.483,2021-5-06T15:07:07Z
2021-05-06T13:09:00Z,42.805,6.029,13.2986,4.59993,2470.507,2021-5-06T15:10:11Z
2021-05-06T13:12:03Z,42.805,6.029,13.2989,4.59995,2470.507,2021-5-06T15:13:14Z
2021-05-06T13:15:07Z,42.805,6.029,13.2993,4.59995,2470.507,2021-5-06T15:16:17Z
2021-05-06T13:18:10Z,42.805,6.029,13.2988,4.59993,2470.53,2021-5-06T15:19:20Z
2021-05-06T13:21:13Z,42.805,6.029,13.2989,4.59994,2470.544,2021-5-06T15:22:23Z
2021-05-06T13:24:16Z,42.805,6.029,13.2991,4.59996,2470.53,2021-5-06T15:25:26Z
2021-05-06T13:27:19Z,42.805,6.029,13.2991,4.59996,2470.52,2021-5-06T15:28:29Z
2021-05-06T13:30:22Z,42.805,6.029,13.2990,4.59994,2470.53,2021-5-06T15:31:32Z
2021-05-06T13:33:25Z,42.805,6.029,13.2990,4.59994,2470.53,2021-5-06T15:34:36Z
2021-05-06T13:36:28Z,42.805,6.029,13.2996,4.59994,2470.52,2021-5-06T15:37:39Z
2021-05-06T13:39:32Z,42.805,6.029,13.2990,4.59996,2470.53,2021-5-06T15:40:42Z
2021-05-06T13:42:35Z,42.805,6.029,13.2992,4.59995,2470.52,2021-5-06T15:43:45Z
2021-05-06T13:45:38Z,42.805,6.029,13.2988,4.59996,2470.507,2021-5-06T15:46:48Z
2021-05-06T13:48:41Z,42.805,6.029,13.2990,4.59995,2470.53,2021-5-06T15:49:51Z
2021-05-06T13:51:44Z,42.805,6.029,13.2991,4.59996,2470.53,2021-5-06T15:52:54Z
2021-05-06T13:54:47Z,42.805,6.029,13.2989,4.59995,2470.553,2021-5-06T15:55:57Z
2021-05-06T13:57:50Z,42.805,6.029,13.2990,4.59994,2470.53,2021-5-06T15:59:01Z
2021-05-06T14:00:53Z,42.805,6.029,13.2985,4.59999,2470.553,2021-5-06T16:02:04Z
2021-05-06T14:03:57Z,42.805,6.029,13.2991,4.59995,2470.53,2021-5-06T16:05:07Z
2021-05-06T14:07:00Z,42.805,6.029,13.2989,4.59999,2470.53,2021-5-06T16:08:10Z
2021-05-06T14:10:03Z,42.805,6.029,13.2986,4.59996,2470.544,2021-5-06T16:11:13Z
2021-05-06T14:13:06Z,42.805,6.029,13.2991,4.59994,2470.53,2021-5-06T16:14:16Z
2021-05-06T14:16:09Z,42.805,6.029,13.2993,4.59994,2470.567,2021-5-06T16:17:19Z
2021-05-06T14:19:12Z,42.805,6.029,13.2990,4.59996,2470.544,2021-5-06T16:20:22Z
2021-05-06T14:22:15Z,42.805,6.029,13.2986,4.59995,2470.544,2021-5-06T16:23:26Z
2021-05-06T14:25:18Z,42.805,6.029,13.2986,4.59996,2470.577,2021-5-06T16:26:29Z
2021-05-06T14:28:22Z,42.805,6.029,13.2992,4.59996,2470.53,2021-5-06T16:29:32Z
2021-05-06T14:31:25Z,42.805,6.029,13.2991,4.59995,2470.553,2021-5-06T16:32:35Z
2021-05-06T14:34:28Z,42.805,6.029,13.2993,4.59997,2470.544,2021-5-06T16:35:38Z
2021-05-06T14:37:31Z,42.805,6.029,13.2992,4.59995,2470.553,2021-5-06T16:38:41Z
2021-05-06T14:40:34Z,42.805,6.029,13.2990,4.59996,2470.544,2021-5-06T16:41:44Z
2021-05-06T14:43:37Z,42.805,6.029,13.2986,4.59994,2470.553,2021-5-06T16:44:47Z
2021-05-06T14:46:40Z,42.805,6.029,13.2991,4.59997,2470.553,2021-5-06T16:47:51Z
2021-05-06T14:49:43Z,42.805,6.029,13.2987,4.59994,2470.567,2021-5-06T16:50:54Z
2021-05-06T14:52:46Z,42.805,6.029,13.2990,4.59996,2470.553,2021-5-06T16:53:57Z
2021-05-06T14:55:50Z,42.805,6.029,13.2993,4.59995,2470.577,2021-5-06T16:57:00Z
2021-05-06T14:58:53Z,42.805,6.029,13.2990,4.59997,2470.567,2021-5-06T17:00:03Z
2021-05-06T15:01:56Z,42.805,6.029,13.2988,4.59996,2470.553,2021-5-06T17:03:06Z
2021-05-06T15:04:59Z,42.805,6.029,13.2993,4.59995,2470.53,2021-5-06T17:06:09Z
2021-05-06T15:08:02Z,42.805,6.029,13.2993,4.59996,2470.567,2021-5-06T17:09:12Z
2021-05-06T15:11:05Z,42.805,6.029,13.2989,4.59999,2470.553,2021-5-06T17:12:16Z
2021-05-06T15:14:08Z,42.805,6.029,13.2989,4.59994,2470.6,2021-5-06T17:15:19Z